Satellite-Ground Cal/Val Region Overpasses Predictions

Prediction of Satellite NPP Overpassing Cal/Val Region: PacNW

Region Location: (Latitude: 10.00, Longitude: 139.50) to (Latitude: 22.70, Longitude: 165.60).

Table of predicted overpasses for the next 14.0 days since TLE Epoch: 1/10/2021
Interval Starting Time Starting Location Ending Time Ending Location
1 01/10/2021 02:58:10 ( 10.88, 154.95) 01/10/2021 03:01:31 ( 22.68, 152.13)
2 01/10/2021 15:29:49 ( 22.66, 152.37) 01/10/2021 15:33:24 ( 10.04, 149.37)
3 01/11/2021 02:38:54 ( 10.01, 159.90) 01/11/2021 02:42:30 ( 22.69, 156.89)
4 01/11/2021 15:10:48 ( 22.65, 157.12) 01/11/2021 15:14:23 ( 10.03, 154.12)
5 01/12/2021 02:19:52 ( 10.03, 164.65) 01/12/2021 02:23:27 ( 22.65, 161.65)
6 01/12/2021 14:51:45 ( 22.69, 161.89) 01/12/2021 14:55:21 ( 10.01, 158.87)
7 01/13/2021 03:42:21 ( 10.05, 144.03) 01/13/2021 03:45:56 ( 22.67, 141.03)
8 01/13/2021 14:33:57 ( 18.39, 165.59) 01/13/2021 14:36:19 ( 10.05, 163.64)
9 01/13/2021 16:14:14 ( 22.67, 141.26) 01/13/2021 16:16:18 ( 15.39, 139.50)
10 01/14/2021 03:23:19 ( 10.01, 148.80) 01/14/2021 03:26:55 ( 22.69, 145.78)
11 01/14/2021 15:55:12 ( 22.65, 146.02) 01/14/2021 15:58:47 ( 10.03, 143.02)
12 01/15/2021 03:04:17 ( 10.03, 153.55) 01/15/2021 03:07:52 ( 22.65, 150.55)
13 01/15/2021 15:36:10 ( 22.69, 150.78) 01/15/2021 15:39:46 ( 10.01, 147.77)
14 01/16/2021 02:45:16 ( 10.05, 158.30) 01/16/2021 02:48:51 ( 22.67, 155.30)
15 01/16/2021 15:17:08 ( 22.67, 155.54) 01/16/2021 15:20:43 ( 10.05, 152.54)
16 01/17/2021 02:26:13 ( 10.01, 163.07) 01/17/2021 02:29:49 ( 22.69, 160.05)
17 01/17/2021 14:58:07 ( 22.66, 160.29) 01/17/2021 15:01:42 ( 10.04, 157.29)
18 01/18/2021 02:09:53 ( 19.48, 165.60) 01/18/2021 02:10:47 ( 22.65, 164.82)
19 01/18/2021 03:48:42 ( 10.03, 142.44) 01/18/2021 03:52:13 ( 22.42, 139.50)
20 01/18/2021 14:39:04 ( 22.70, 165.06) 01/18/2021 14:42:40 ( 10.02, 162.04)
21 01/18/2021 16:20:34 ( 22.69, 139.68) 01/18/2021 16:20:46 ( 21.99, 139.50)
22 01/19/2021 03:29:40 ( 10.05, 147.20) 01/19/2021 03:33:15 ( 22.67, 144.19)
23 01/19/2021 16:01:33 ( 22.67, 144.43) 01/19/2021 16:05:08 ( 10.05, 141.43)
24 01/20/2021 03:10:38 ( 10.01, 151.96) 01/20/2021 03:14:14 ( 22.69, 148.95)
25 01/20/2021 15:42:31 ( 22.65, 149.18) 01/20/2021 15:46:06 ( 10.03, 146.18)
26 01/21/2021 02:51:36 ( 10.03, 156.71) 01/21/2021 02:55:11 ( 22.65, 153.71)
27 01/21/2021 15:23:29 ( 22.69, 153.95) 01/21/2021 15:27:05 ( 10.02, 150.94)
28 01/22/2021 02:32:35 ( 10.05, 161.47) 01/22/2021 02:36:10 ( 22.67, 158.46)
29 01/22/2021 15:04:28 ( 22.67, 158.70) 01/22/2021 15:08:03 ( 10.06, 155.70)
30 01/23/2021 02:14:19 ( 12.77, 165.60) 01/23/2021 02:17:08 ( 22.69, 163.22)
31 01/23/2021 03:55:02 ( 10.02, 140.86) 01/23/2021 03:56:41 ( 15.83, 139.51)
